Weather History for KSRQ - October, 2010

Change the Weather History Date:

Wednesday, October 6, 2010

  Actual Average Record
Temperature  
Mean Temperature 73 °F 79 °F  
Max Temperature 82 °F 87 °F 95 °F (1989)
Min Temperature 63 °F 71 °F 57 °F (1913)
Degree Days  
Heating Degree Days 0 0  
Month to date heating degree days 0 0  
Since 1 July heating degree days 0 0  
Cooling Degree Days 8 14  
Month to date cooling degree days 61 86  
Year to date cooling degree days 2998 2875  
Growing Degree Days 23 (Base 50)    
Moisture  
Dew Point 54 °F    
Average Humidity 55    
Maximum Humidity 73    
Minimum Humidity 34    
Precipitation  
Precipitation 0.00 in 0.12 in 1.32 in (1923)
Month to date precipitation T 0.78  
Year to date precipitation 40.59 46.21  
Sea Level Pressure  
Sea Level Pressure 30.02 in    
Wind  
Wind Speed 10 mph (NNE)    
Max Wind Speed 17 mph    
Max Gust Speed 22 mph    
Visibility 10 miles    
Events      
T = Trace of Precipitation, MM = Missing Value Source: NWS Daily Summary

Daily Weather History Graph

Daily Weather History Graph

Search for Another Location

Airport or City:

Trip Planner

Search our weather history database for the weather conditions in past years. The results will help you decide how hot, cold, wet, or windy it might be!

Date:

Astronomy

Oct. 06, 2010 Rise Set
Actual Time 7:25 AM EDT 7:10 PM EDT
Civil Twilight 7:02 AM EDT 7:34 PM EDT
Nautical Twilight 6:34 AM EDT 8:01 PM EDT
Astronomical Twilight 6:07 AM EDT 8:28 PM EDT
Moon 6:03 AM EDT (10/6) 6:13 PM EDT (10/6)
Length of Visible Light 12h 32m
Length of Day
11h 45m
Waning Crescent, 2% of the Moon is Illuminated
Oct 6
Waning Crescent
Oct 7
New
Oct 14
First Quarter
Oct 22
Full
Oct 30
Last Quarter

Hourly Weather History & Observations

Time (EDT) Temp. Heat Index Dew Point Humidity Pressure Visibility Wind Dir Wind Speed Gust Speed Precip Events Conditions
12:53 AM 69.1 °F - 60.1 °F 73% 30.04 in 10.0 mi NE 8.1 mph - N/A   Clear
1:53 AM 68.0 °F - 59.0 °F 73% 30.04 in 10.0 mi NNE 11.5 mph 17.3 mph N/A   Clear
2:53 AM 66.9 °F - 57.0 °F 70% 30.04 in 10.0 mi NNE 12.7 mph - N/A   Clear
3:53 AM 66.0 °F - 55.0 °F 68% 30.03 in 10.0 mi NNE 9.2 mph 18.4 mph N/A   Partly Cloudy
4:53 AM 64.9 °F - 54.0 °F 68% 30.03 in 10.0 mi NNE 10.4 mph - N/A   Clear
5:53 AM 64.9 °F - 53.1 °F 65% 30.03 in 10.0 mi NNE 10.4 mph - N/A   Clear
6:53 AM 64.0 °F - 53.1 °F 67% 30.03 in 10.0 mi NNE 10.4 mph - N/A   Clear
7:53 AM 64.0 °F - 52.0 °F 65% 30.05 in 10.0 mi NNE 8.1 mph - N/A   Clear
8:53 AM 66.9 °F - 52.0 °F 59% 30.06 in 10.0 mi NNE 8.1 mph 20.7 mph N/A   Clear
9:53 AM 71.1 °F - 53.1 °F 53% 30.07 in 10.0 mi NE 13.8 mph - N/A   Clear
10:53 AM 73.0 °F - 53.1 °F 49% 30.07 in 10.0 mi NE 13.8 mph 21.9 mph N/A   Clear
11:53 AM 77.0 °F - 53.1 °F 43% 30.07 in 10.0 mi NNE 11.5 mph 18.4 mph N/A   Clear
12:53 PM 80.1 °F 79.9 °F 53.1 °F 39% 30.05 in 10.0 mi North 13.8 mph - N/A   Clear
1:53 PM 82.0 °F 81.3 °F 54.0 °F 38% 30.02 in 10.0 mi North 12.7 mph 18.4 mph N/A   Clear
2:53 PM 82.0 °F 81.3 °F 54.0 °F 38% 29.99 in 10.0 mi NNW 12.7 mph - N/A   Clear
3:53 PM 82.0 °F - 52.0 °F 35% 29.97 in 10.0 mi NNE 11.5 mph - N/A   Clear
4:53 PM 81.0 °F - 51.1 °F 35% 29.96 in 10.0 mi North 13.8 mph 18.4 mph N/A   Clear
5:53 PM 80.1 °F - 50.0 °F 35% 29.96 in 10.0 mi NE 8.1 mph - N/A   Clear
6:53 PM 77.0 °F - 48.9 °F 37% 29.97 in 10.0 mi NE 8.1 mph - N/A   Clear
7:53 PM 73.0 °F - 52.0 °F 48% 29.98 in 10.0 mi NNE 4.6 mph - N/A   Clear
8:53 PM 70.0 °F - 54.0 °F 57% 29.99 in 10.0 mi North 4.6 mph - N/A   Clear
9:53 PM 69.1 °F - 55.0 °F 61% 30.01 in 10.0 mi NNE 3.5 mph - N/A   Clear
10:53 PM 66.9 °F - 55.9 °F 68% 30.03 in 10.0 mi ENE 5.8 mph - N/A   Clear
11:53 PM 64.0 °F - 55.9 °F 75% 30.04 in 10.0 mi ENE 4.6 mph - N/A   Clear